Content
SEND FEEDBACK

Daily
Averages
Monthly
Summary
Germany

WITTENBERG, GERMANY


Home > Europe > Germany
Elevation: 358 feet     Latitude: 51 53N     Longitude: 012 39E

WEATHER
 
SELECT A DAY
Number of Records: 47,701;   Date Range: 3/9/98 - 11/26/14
 
SHARE

PRINT THIS DATA

[ ← Previous Day ]
WEATHER ALMANAC - FEBRUARY 13, 2013
[ Next Day → ]
[ °C ]   °F
Weather ElementAverageHighLow
Temperature28.5 °F30.2 °F (11:20 am)26.6 °F (8:20 pm)
Dewpoint26.2 °F26.6 °F (1:20 am)24.8 °F (7:20 pm)
Humidity91 %93 % (1:20 am)86 % (11:20 am)
Barometer30.19 in30.33 in (7:20 pm)30.04 in (1:20 am)
Wind Speed4.4 mph6.9 mph (1:01 pm)
Weather ElementAverage
Visibility2.9 mi
Wind DirectionNNW (324.6 °)

Weather ElementTotal
Precipitation---
Heating Degree Days36.6 (Base 65)
Averaged from 28 records on February 13, 2013
WEATHER CONDITIONS BREAKOUT
WIND DIRECTION BREAKOUT
WEATHER BY HOUR - FEBRUARY 13, 2013
[ °C ]   °F
Local TimeTemperatureDewpointHumidityBarometerVisibilityWind DirectionWind SpeedGust SpeedPrecipitationEventsConditions
1:20 AM28.4 °F26.6 °F93 %30.04 in1.4 miNorth (350°)4.6 mphSnowLight Snow
2:20 AM28.4 °F26.6 °F93 %30.04 in1.1 miNorth (350°)4.6 mphSnowLight Snow
3:00 AM28.4 °F26.6 °F93 %30.04 in0.9 miNNW (340°)4.6 mphSnowSnow
3:20 AM28.4 °F26.6 °F93 %30.04 in0.9 miNNW (340°)3.5 mphSnowSnow
3:46 AM28.4 °F26.6 °F93 %30.06 in1.2 miNNW (340°)4.6 mphSnowLight Snow
4:20 AM28.4 °F26.6 °F93 %30.06 in1.0 miNNW (340°)3.5 mphSnowLight Snow
5:20 AM28.4 °F26.6 °F93 %30.06 in1.2 miNorth (350°)3.5 mphSnowLight Snow
6:04 AM28.4 °F26.6 °F93 %30.09 in1.9 miNNW (340°)3.5 mphSnowLight Snow
6:20 AM28.4 °F26.6 °F93 %30.09 in1.6 miNorth (350°)3.5 mphSnowLight Snow
7:20 AM28.4 °F26.6 °F93 %30.12 in1.2 miNNW (330°)3.5 mphSnowLight Snow
8:20 AM28.4 °F26.6 °F93 %30.12 in1.4 miNNW (340°)3.5 mphSnowLight Snow
9:20 AM28.4 °F26.6 °F93 %30.15 in1.7 miNNW (330°)4.6 mphSnowLight Snow
10:20 AM28.4 °F26.6 °F93 %30.18 in1.9 miNW (320°)5.8 mphSnowLight Snow
11:20 AM30.2 °F26.6 °F86 %30.21 in3.1 miNW (320°)5.8 mphMostly Cloudy
12:20 PM30.2 °F26.6 °F86 %30.21 in3.1 miNNW (340°)4.6 mphMostly Cloudy
1:01 PM30.2 °F26.6 °F86 %30.21 in4.3 miNW (320°)6.9 mphMostly Cloudy
1:20 PM30.2 °F26.6 °F86 %30.21 in4.3 miNW (320°)5.8 mphMostly Cloudy
2:20 PM30.2 °F26.6 °F86 %30.24 in3.7 miNNW (330°)4.6 mphMostly Cloudy
3:20 PM30.2 °F26.6 °F86 %30.27 in4.3 miNNW (330°)5.8 mphMostly Cloudy
4:20 PM30.2 °F26.6 °F86 %30.27 in4.3 miNW (320°)6.9 mphSnowLight Snow
5:20 PM28.4 °F26.6 °F93 %30.30 in4.3 miNW (310°)3.5 mphMostly Cloudy
6:20 PM28.4 °F26.6 °F93 %30.30 in4.3 miNW (320°)3.5 mphMostly Cloudy
7:20 PM28.4 °F24.8 °F86 %30.33 in5.0 miWNW (300°)3.5 mphMostly Cloudy
8:20 PM26.6 °F24.8 °F93 %30.33 in5.0 miNW (310°)3.5 mphMostly Cloudy
9:20 PM26.6 °F24.8 °F93 %30.33 in5.0 miWNW (300°)4.6 mphMostly Cloudy
9:30 PM26.6 °F24.8 °F93 %30.33 in5.0 miWNW (290°)4.6 mphMostly Cloudy
10:20 PM26.6 °F24.8 °F93 %30.33 in5.0 miWNW (290°)3.5 mphMostly Cloudy
11:20 PM26.6 °F24.8 °F93 %30.33 in3.7 miWest (270°)3.5 mphMostly Cloudy
Hourly data recorded from ETSH, located miles away from Wittenberg, Germany







STORIES FROM OUR PARTNERS